Shannon, Ireland

11:33 AM IST on September 26, 2016 (GMT +0100)
Shannon

Weather History for EINN - July, 2013

Change the Weather History Date:

Wednesday, July 10, 2013

  Actual Average Record
Temperature  
Mean Temperature 72 °F -  
Max Temperature 85 °F 65 °F 85 °F (2013)
Min Temperature 59 °F 53 °F 50 °F (2012)
Cooling Degree Days 7    
Growing Degree Days 22 (Base 50)    
Moisture  
Dew Point 61 °F    
Average Humidity 69    
Maximum Humidity 100    
Minimum Humidity 26    
Precipitation  
Precipitation 0.00 in - - ()
Sea Level Pressure  
Sea Level Pressure 30.31 in    
Wind  
Wind Speed 6 mph ()    
Max Wind Speed 11 mph    
Max Gust Speed -    
Visibility 7.8 miles    
Events Fog    
Averages and records for this station are not official NWS values.
T = Trace of Precipitation, MM = Missing Value Source: Averaged Metar Reports

Daily Weather History Graph

Daily Weather History Graph

Search for Another Location

Airport or City:

Trip Planner

Search our weather history database for the weather conditions in past years. The results will help you decide how hot, cold, wet, or windy it might be!

Date:

Astronomy

Jul. 10, 2013 Rise Set
Actual Time 5:24 AM IST 9:57 PM IST
Civil Twilight 4:36 AM IST 10:45 PM IST
Nautical Twilight 3:20 AM IST 11:59 PM IST
Astronomical Twilight 2:13 AM IST 1:08 AM IST
Moon 7:57 AM IST (7/10) 10:30 PM IST (7/10)
Length of Visible Light 18h 09m
Length of Day
16h 32m
Waxing Crescent, 4% of the Moon is Illuminated
Jul 10
Waxing Crescent
Jul 16
First Quarter
Jul 22
Full
Jul 29
Last Quarter
Aug 6
New

Hourly Weather History & Observations

Time (IST) Temp. Heat Index Dew Point Humidity Pressure Visibility Wind Dir Wind Speed Gust Speed Precip Events Conditions
12:00 AM 71.6 °F - 66.2 °F 83% 30.33 in - NNW 8.1 mph - N/A   Clear
12:30 AM 69.8 °F - 66.2 °F 88% 30.33 in - NNW 9.2 mph - N/A   Clear
1:00 AM 69 °F - 65 °F 84% 30.35 in 12 mi NNW 11.2 mph - -   Scattered Clouds
1:00 AM 68.0 °F - 64.4 °F 88% 30.33 in - NNW 10.4 mph - N/A   Clear
1:30 AM 68.0 °F - 64.4 °F 88% 30.33 in - NNW 8.1 mph - N/A   Clear
2:00 AM 66.2 °F - 64.4 °F 94% 30.36 in - NNW 4.6 mph - N/A   Clear
2:30 AM 66.2 °F - 62.6 °F 88% 30.36 in - NW 4.6 mph - N/A   Clear
3:00 AM 64.4 °F - 62.6 °F 94% 30.33 in - NW 8.1 mph - N/A   Clear
3:30 AM 62.6 °F - 60.8 °F 94% 30.36 in - North 5.8 mph - N/A   Clear
4:00 AM 62.6 °F - 60.8 °F 94% 30.33 in 6.2 mi NNW 5.8 mph - N/A   Scattered Clouds
4:30 AM 60.8 °F - 60.8 °F 100% 30.33 in 6.2 mi North 3.5 mph - N/A   Partly Cloudy
5:00 AM 60.8 °F - 59.0 °F 94% 30.33 in 6.2 mi North 3.5 mph - N/A   Partly Cloudy
5:30 AM 60.8 °F - 59.0 °F 94% 30.33 in 6.2 mi NNW 4.6 mph - N/A   Partly Cloudy
6:00 AM 59.0 °F - 59.0 °F 100% 30.33 in 6.2 mi NNW 4.6 mph - N/A   Scattered Clouds
6:30 AM 60.8 °F - 59.0 °F 94% 30.33 in 6.2 mi NNW 3.5 mph - N/A   Scattered Clouds
7:00 AM 61 °F - 60 °F 95% 30.36 in 16 mi NNW 4.5 mph - -   Scattered Clouds
7:00 AM 60.8 °F - 60.8 °F 100% 30.33 in 6.2 mi NNW 4.6 mph - N/A   Scattered Clouds
7:30 AM 64.4 °F - 60.8 °F 88% 30.33 in 6.2 mi North 3.5 mph - N/A   Scattered Clouds
8:00 AM 66.2 °F - 62.6 °F 88% 30.36 in 6.2 mi North 2.3 mph - N/A   Scattered Clouds
8:30 AM 68.0 °F - 62.6 °F 83% 30.33 in 6.2 mi NNE 2.3 mph - N/A   Scattered Clouds
9:00 AM 69.8 °F - 64.4 °F 83% 30.33 in - NNW 2.3 mph - N/A   Clear
9:30 AM 71.6 °F - 66.2 °F 83% 30.33 in - NNW 2.3 mph - N/A   Clear
10:00 AM 75.2 °F - 66.2 °F 73% 30.33 in 6.2 mi NE 3.5 mph - N/A   Partly Cloudy
10:30 AM 75.2 °F - 66.2 °F 73% 30.33 in 6.2 mi SSE 4.6 mph - N/A   Partly Cloudy
11:00 AM 77.0 °F - 66.2 °F 69% 30.33 in 6.2 mi North 4.6 mph - N/A   Partly Cloudy
11:30 AM 77.0 °F - 62.6 °F 61% 30.33 in 6.2 mi NNE 8.1 mph - N/A   Partly Cloudy
12:00 PM 78.8 °F - 62.6 °F 57% 30.33 in 6.2 mi NE 6.9 mph - N/A   Partly Cloudy
12:30 PM 78.8 °F - 62.6 °F 57% 30.33 in 6.2 mi NNE 9.2 mph - N/A   Partly Cloudy
1:00 PM 80 °F - 62 °F 44% 30.33 in 19 mi NNE 8.9 mph - -   Scattered Clouds
1:00 PM 80.6 °F 81.8 °F 62.6 °F 54% 30.30 in 6.2 mi NNE 8.1 mph - N/A   Partly Cloudy
1:30 PM 80.6 °F 81.5 °F 60.8 °F 51% 30.30 in 6.2 mi NE 9.2 mph - N/A   Partly Cloudy
2:00 PM 82.4 °F 82.5 °F 59.0 °F 45% 30.30 in 6.2 mi NE 6.9 mph - N/A   Partly Cloudy
2:30 PM 82.4 °F 82.9 °F 60.8 °F 48% 30.30 in 6.2 mi NNE 6.9 mph - N/A   Partly Cloudy
3:00 PM 82.4 °F 82.9 °F 60.8 °F 48% 30.30 in 6.2 mi NNE 8.1 mph - N/A   Partly Cloudy
3:30 PM 84.2 °F 84.4 °F 60.8 °F 45% 30.30 in 6.2 mi NNE 8.1 mph - N/A   Partly Cloudy
4:00 PM 85 °F - 56 °F 26% 30.29 in 31 mi NNE 6.7 mph - -   Scattered Clouds
4:00 PM 84.2 °F 83.8 °F 59.0 °F 42% 30.27 in 6.2 mi NE 5.8 mph - N/A   Partly Cloudy
4:30 PM 84.2 °F 83.5 °F 57.2 °F 40% 30.27 in 6.2 mi ENE 5.8 mph - N/A   Partly Cloudy
5:00 PM 85 °F - 56 °F 26% 30.29 in 31 mi NNE 6.7 mph - -   Scattered Clouds
5:00 PM 84.2 °F 83.0 °F 55.4 °F 37% 30.27 in 6.2 mi NNE 5.8 mph - N/A   Partly Cloudy
5:30 PM 84.2 °F 83.5 °F 57.2 °F 40% 30.27 in 6.2 mi NNE 6.9 mph - N/A   Partly Cloudy
6:00 PM 85 °F - 59 °F 31% 30.27 in 31 mi NNE 8.9 mph - -   Scattered Clouds
6:00 PM 84.2 °F 83.8 °F 59.0 °F 42% 30.27 in 6.2 mi NNE 8.1 mph - N/A   Partly Cloudy
6:30 PM 84.2 °F 83.5 °F 57.2 °F 40% 30.27 in 6.2 mi NNE 6.9 mph - N/A   Partly Cloudy
7:00 PM 59 °F - 58 °F 97% 30.30 in 12 mi North 4.5 mph - - Fog Patches of Fog
7:00 PM 84.2 °F 83.8 °F 59.0 °F 42% 30.27 in 6.2 mi NNE 8.1 mph - N/A   Partly Cloudy
7:30 PM 84.2 °F 83.8 °F 59.0 °F 42% 30.27 in 6.2 mi NNE 6.9 mph - N/A   Partly Cloudy
8:00 PM 59 °F - 58 °F 97% 30.30 in 12 mi North 4.5 mph - - Fog Patches of Fog
8:00 PM 84.2 °F 83.8 °F 59.0 °F 42% 30.27 in 6.2 mi North 6.9 mph - N/A   Partly Cloudy
8:30 PM 82.4 °F 82.5 °F 59.0 °F 45% 30.27 in 6.2 mi NNE 5.8 mph - N/A   Partly Cloudy
9:00 PM 59 °F - 58 °F 97% 30.30 in 12 mi North 4.5 mph - - Fog Patches of Fog
9:00 PM 80.6 °F 81.5 °F 60.8 °F 51% 30.27 in - NNE 5.8 mph - N/A   Clear
9:30 PM 77.0 °F - 60.8 °F 57% 30.27 in - NNE 4.6 mph - N/A   Clear
10:00 PM 64 °F - 59 °F 79% 30.31 in 12 mi NE 4.5 mph - -   Clear
10:00 PM 73.4 °F - 60.8 °F 65% 30.27 in - North 4.6 mph - N/A   Clear
10:30 PM 71.6 °F - 60.8 °F 69% 30.27 in - North 4.6 mph - N/A   Clear
11:00 PM 69 °F - 60 °F 67% 30.29 in 19 mi North 4.5 mph - -   Scattered Clouds
11:00 PM 69.8 °F - 60.8 °F 73% 30.27 in - North 3.5 mph - N/A   Clear
11:30 PM 69.8 °F - 60.8 °F 73% 30.27 in - NE 4.6 mph - N/A   Clear